Погода в Тугаево

Россия / Чувашская Республика     55°11′55″N   47°20′46″E
темп.,
°C
ветер,
м/с
пор.,
м/с
влажн.,
%
обл.,
%
осадки,
мм/ч
давл.,
гПа
погр.,
м
8 марта, пн
пн800:00−5ююз61393100 0.9 994819
03:00−4ююз61395100 2.2 992882
06:00−7з6138879 0.6 993506
09:00−6зюз7129082 0.6 996814
12:00−5зюз6108299 0.1 9991072
15:00−4зюз578057 0.1 9991071
18:00−9зсз1191100 0.0 99921
21:00−8сз3795100 1.3 1001298
9 марта, вт
вт900:00−11з499489 0.5 1004189
03:00−15з489668 0.5 1006129
06:00−16з369880 0.0 1008112
09:00−13з359486 0.1 1009252
12:00−10зсз348797 0.0 1010548
15:00−9ссз348999 0.1 1010513
18:00−13ссз359599 0.1 1011104
21:00−14ссз379698 0.3 1013249
10 марта, ср
ср1000:00−16ссз489793 0.1 1013223
03:00−19ссз499896 0.1 1014256
06:00−22ссз4997100 0.1 1016279
09:00−22ссз5996100 0.1 1018348
12:00−21ссз599399 0.0 1019426
15:00−19ссз698999 0.0 1020586
18:00−21сз4109385 0.0 1022249
21:00−24сз369743 0.0 1023102
11 марта, чт
чт1100:00−24зсз3610018 0.0 1023112
03:00−24зсз4710058 0.0 1024134
06:00−24зсз499881 0.0 1024166
09:00−20з599487 0.0 1024276
12:00−15зсз5892100 0.1 1024424
15:00−12зсз61091100 0.1 1024503
18:00−12зсз41194100 0.0 1024364
21:00−12сз5119496 0.1 1026253
12 марта, пт
пт1200:00−15зсз489544 0.0 1028149
03:00−17зсз349522 0.0 102982
06:00−18з34930 0.0 103063
09:00−13з36890 0.0 1031222
12:00−8з36850 0.0 1031362
15:00−7зюз47820 0.0 1030545
18:00−12юз36920 0.0 1030122
21:00−14ююз48930 0.0 1030142